This is the latest recevied weather packets stored in our database for station/object KD8OZS. If no packets are shown the sender has not sent any weather packets the latest 10 day(s).
| Time | Temp. | Humidity | Pressure | Rain* | Wind** | Luminosity | Snow |
|---|---|---|---|---|---|---|---|
| 1787449358 | 17.22° C | 98% | 1004.2 hPa | 0 mm | - | 0 W/m² | - |
| 1787449053 | 17.22° C | 98% | 1004.5 hPa | 0 mm | - | 0 W/m² | - |
| 1787448747 | 17.22° C | 98% | 1004.3 hPa | 0 mm | - | 0 W/m² | - |
| 1787448444 | 17.22° C | 98% | 1004.5 hPa | 0 mm | - | 0 W/m² | - |
| 1787448140 | 17.78° C | 98% | 1004.2 hPa | 0 mm | - | 0 W/m² | - |
| 1787447839 | 17.78° C | 98% | 1004.7 hPa | 0 mm | - | 0 W/m² | - |
| 1787447534 | 17.78° C | 98% | 1004.3 hPa | 0 mm | - | 0 W/m² | - |
| 1787447230 | 17.78° C | 98% | 1004.1 hPa | 0 mm | - | 0 W/m² | - |
| 1787446927 | 17.78° C | 98% | 1004.2 hPa | 0 mm | - | 0 W/m² | - |
| 1787446626 | 17.78° C | 98% | 1004.1 hPa | 0 mm | - | 0 W/m² | - |
| 1787446321 | 17.78° C | 97% | 1004 hPa | 0 mm | - | 0 W/m² | - |
| 1787446018 | 18.33° C | 97% | 1003.8 hPa | 0 mm | - | 0 W/m² | - |
| 1787445714 | 17.78° C | 97% | 1003.9 hPa | 0 mm | - | 0 W/m² | - |
| 1787445410 | 18.33° C | 97% | 1003.7 hPa | 0 mm | - | 0 W/m² | - |
| 1787445104 | 18.33° C | 97% | 1003.6 hPa | 0 mm | - | 0 W/m² | - |
| 1787444795 | 18.33° C | 97% | 1003.6 hPa | 0 mm | - | 0 W/m² | - |
| 1787444492 | 18.33° C | 96% | 1003.7 hPa | 0 mm | - | 0 W/m² | - |
| 1787444192 | 18.89° C | 96% | 1003.5 hPa | 0 mm | - | 2 W/m² | - |
| 1787443892 | 18.89° C | 96% | 1003.5 hPa | 0 mm | - | 6 W/m² | - |
| 1787443590 | 18.89° C | 96% | 1003.5 hPa | 0 mm | - | 8 W/m² | - |
| 1787443286 | 18.89° C | 96% | 1003.3 hPa | 0 mm | - | 12 W/m² | - |
| 1787442985 | 19.44° C | 96% | 1003.2 hPa | 0 mm | - | 17 W/m² | - |
| 1787442681 | 20° C | 96% | 1003.1 hPa | 0 mm | - | 23 W/m² | - |
| 1787442378 | 20° C | 96% | 1003.2 hPa | 0 mm | - | 31 W/m² | - |
| 1787442077 | 20° C | 96% | 1003.2 hPa | 0 mm | - | 38 W/m² | - |
* Rain latest hour (hover to see other rain measurements)
** Current wind speed in m/s (hover to see current wind gust speed)